Orbital elements:
2000 VU2 = 2000 VW55
Id. T. B. Spahr (d), S. Nakano (d)
Epoch 2000 Sept. 13.0 TT = JDT 2451800.5                Williams
M 354.23222              (2000.0)            P               Q
n   0.05343307     Peri.  180.99596     +0.34603240     -0.91168729
a   6.9811872      Node   248.78756     +0.86243724     +0.40206409
e   0.5564802      Incl.   13.74850     +0.36940978     -0.08468024
P  18.45           H   13.3           G   0.15           U   3
Residuals in seconds of arc
000927 704  0.3-  0.1-    001118 118  0.2-  0.1+    001121 300  0.1-  0.8-
000927 704  0.1-  0.2-    001118 151  0.1+  0.1+    001121 300  0.3+  0.1-
000927 704  0.5+  0.4-    001118 118  0.0   0.2-    001121 300  0.7+  0.1-
000927 704  0.0   0.1+    001118 151  0.3-  0.2-    001122 850  0.5-  0.2-
000927 704  0.2+  0.2-    001118 151  1.6-  0.8+    001122 850  0.1-  0.0
001025 704  0.1-  0.5+    001118 118  0.1-  0.1+    001122 850  0.1+  0.0
001025 704  0.3+  0.2+    001118 151  0.1-  0.1-    001122 850  0.0   0.2-
001025 704  0.0   0.4+    001119 853  0.2-  0.0     001122 046  0.0   0.2+
001025 704  0.2-  0.5+    001119 853  0.2-  0.0     001122 046  0.2+  0.0
001025 704  0.3-  0.8+    001119 853  0.2-  0.1+    001122 046  0.1-  0.2-
001101 919  0.3+  0.9-    001119 670  0.1+  0.3-    001122 046  0.0   0.1+
001101 919  0.8+  1.4-    001119 670  0.5+  0.3+    001122 046  0.0   0.2-
001102 919  1.5-  0.1-    001119 670  0.7-  0.3+    001123 919  0.5+  0.4+
001102 919  1.6-  0.1+    001119 300  0.3-  0.6-    001123 853  0.1-  0.3-
001103 704  0.5+  0.0     001119 300  0.4-  0.7-    001123 853  0.1+  0.1-
001103 704  0.5+  0.2-    001120 919  0.6+  0.0     001123 919  0.5+  0.1-
001103 704  0.3+  0.2-    001120 919  0.7+  0.1+    001123 853  0.1-  0.1-
001103 704  0.2+  0.2+    001120 704  1.0-  0.0     001123 919  0.7+  0.5+
001105 704  0.6+  0.3+    001120 670  0.1+  0.3+    001123 919  0.2+  0.6+
001105 704  0.1+  0.2-    001120 850  0.3+  0.0     001124 699  0.2-  0.1+
001105 704  0.1+  0.0     001120 704  0.3-  0.1+    001124 918  0.6+  0.4+
001105 704  0.6+  0.6+    001120 704  0.4-  0.1+    001124 918  0.4-  0.2+
001105 704  0.0   1.1+    001120 850  0.1+  0.3-    001124 854  0.2-  0.4-
001118 300  0.2-  0.0     001120 670  0.2+  1.5-    001124 699  0.3-  0.2+
001118 300  0.4-  0.0     001120 704  0.6-  0.1+    001124 854  0.2+  0.2-
001118 300  0.1-  0.3-    001120 850  0.1+  0.2-    001124 918  0.3-  0.3+
001118 046  0.0   0.2-    001120 670  0.4+  0.4+    001124 854  0.5+  0.2+
001118 046  0.1+  0.2+    001121 719  0.3-  0.3+    001124 918  0.1-  0.5+
001118 046  0.1-  0.2-    001121 719  0.7+  0.4+    001124 918  0.6+  0.3+
001118 046  0.3+  0.0     001121 850  0.1+  0.2-    001124 699  0.2-  0.0
001118 046  0.1+  0.1-    001121 850  0.1+  0.4-    001124 699  0.1-  0.3+
001118 151  0.1-  0.2-    001121 850  0.2+  0.3-
001118 151  0.1-  0.1-    001121 850  0.3+  0.3-

Ephemeris:
2000 VU2                 a,e,i = 6.98, 0.56, 14                  q = 3.0963
Date    TT    R. A. (2000) Decl.     Delta      r     Elong.  Phase     V
2000 11 22    03 57.95   +23 09.4    2.122    3.109   176.6     1.1    17.6
2000 12 02    03 52.29   +22 04.8    2.127    3.103   170.4     3.1    17.7
2000 12 12    03 47.38   +21 00.9    2.160    3.099   159.0     6.5    17.9
2000 12 22    03 43.88   +20 02.1    2.220    3.097   147.8     9.7    18.1
2001 01 01    03 42.25   +19 11.8    2.303    3.097   137.1    12.5    18.3
2001 01 11    03 42.73   +18 32.1    2.407    3.098   126.9    14.7    18.5
2001 01 21    03 45.35   +18 03.5    2.525    3.101   117.2    16.4    18.7
2001 01 31    03 50.02   +17 45.4    2.656    3.106   108.0    17.6    18.8
2001 02 10    03 56.59   +17 36.2    2.795    3.112    99.4    18.2    18.9
2001 02 20    04 04.82   +17 34.0    2.939    3.120    91.2    18.5    19.1
2001 03 02    04 14.53   +17 36.9    3.084    3.130    83.5    18.3    19.2
2001 03 12    04 25.49   +17 42.8    3.229    3.141    76.1    17.9    19.3
2001 03 22    04 37.52   +17 49.9    3.371    3.154    69.0    17.2    19.3
2001 04 01    04 50.44   +17 56.5    3.509    3.169    62.2    16.2    19.4

   Reports of the stellar nature of 2000 VU2 have been received from
T. B. Spahr on CCD images obtained on Nov. 20 UT with the 1.2-m Mount Hopkins
reflector and C. W. Hergenrother on CCD images obtained on Nov. 23 and 24 with
the 1.5-m Catalina reflector.

Gareth V. Williams           (C) Copyright 2000 MPC           M.P.E.C. 2000-W29

Read MPEC 2000-W28 Read MPEC 2000-W30


Our Web policy. Index to the CBAT/MPC/ICQ pages.

